owner,sensor,date,latitude,longitude,air_temperature,qcFlag 
DISL,ioos:station:DISL:MBLA:1,2015-02-01T00:00:00Z,30.4367,-88.0117,13.02,1111122 
DISL,ioos:station:DISL:MBLA:1,2015-02-01T00:30:00Z,30.4367,-88.0117,12.68,1111122 
DISL,ioos:station:DISL:MBLA:1,2015-02-01T01:00:00Z,30.4367,-88.0117,12.45,1111122 
DISL,ioos:station:DISL:MBLA:1,2015-02-01T01:30:00Z,30.4367,-88.0117,12.32,1111122 
DISL,ioos:station:DISL:MBLA:1,2015-02-01T02:00:00Z,30.4367,-88.0117,12.05,1111122 
DISL,ioos:station:DISL:MBLA:1,2015-02-01T02:30:00Z,30.4367,-88.0117,11.81,1111122 
DISL,ioos:station:DISL:MBLA:1,2015-02-01T03:00:00Z,30.4367,-88.0117,11.68,1111122 
DISL,ioos:station:DISL:MBLA:1,2015-02-01T03:30:00Z,30.4367,-88.0117,11.78,1111122 
DISL,ioos:station:DISL:MBLA:1,2015-02-01T04:00:00Z,30.4367,-88.0117,11.68,1111122 
DISL,ioos:station:DISL:MBLA:1,2015-02-01T04:30:00Z,30.4367,-88.0117,11.58,1111122 
DISL,ioos:station:DISL:MBLA:1,2015-02-01T05:00:00Z,30.4367,-88.0117,11.31,1111122 
DISL,ioos:station:DISL:MBLA:1,2015-02-01T05:30:00Z,30.4367,-88.0117,11.37,1111122 
DISL,ioos:station:DISL:MBLA:1,2015-02-01T06:00:00Z,30.4367,-88.0117,11.34,1111122 
DISL,ioos:station:DISL:MBLA:1,2015-02-01T06:30:00Z,30.4367,-88.0117,11.41,1111122 
DISL,ioos:station:DISL:MBLA:1,2015-02-01T07:00:00Z,30.4367,-88.0117,11.34,1111122 
DISL,ioos:station:DISL:MBLA:1,2015-02-01T07:30:00Z,30.4367,-88.0117,11.1,1111122 
DISL,ioos:station:DISL:MBLA:1,2015-02-01T08:00:00Z,30.4367,-88.0117,11.14,1111122 
DISL,ioos:station:DISL:MBLA:1,2015-02-01T08:30:00Z,30.4367,-88.0117,11.1,1111122 
DISL,ioos:station:DISL:MBLA:1,2015-02-01T09:00:00Z,30.4367,-88.0117,11.17,1111122 
DISL,ioos:station:DISL:MBLA:1,2015-02-01T09:30:00Z,30.4367,-88.0117,11.27,1111122 
DISL,ioos:station:DISL:MBLA:1,2015-02-01T10:00:00Z,30.4367,-88.0117,11.34,1111122 
DISL,ioos:station:DISL:MBLA:1,2015-02-01T10:30:00Z,30.4367,-88.0117,11.1,1111122 
DISL,ioos:station:DISL:MBLA:1,2015-02-01T11:00:00Z,30.4367,-88.0117,11.34,1111122 
DISL,ioos:station:DISL:MBLA:1,2015-02-01T11:30:00Z,30.4367,-88.0117,11.65,1111122 
DISL,ioos:station:DISL:MBLA:1,2015-02-01T12:00:00Z,30.4367,-88.0117,12.46,1111122 
DISL,ioos:station:DISL:MBLA:1,2015-02-01T12:30:00Z,30.4367,-88.0117,12.39,1111122 
DISL,ioos:station:DISL:MBLA:1,2015-02-01T13:00:00Z,30.4367,-88.0117,12.12,1111122 
DISL,ioos:station:DISL:MBLA:1,2015-02-01T13:30:00Z,30.4367,-88.0117,12.12,1111122 
DISL,ioos:station:DISL:MBLA:1,2015-02-01T14:00:00Z,30.4367,-88.0117,11.91,1111122 
DISL,ioos:station:DISL:MBLA:1,2015-02-01T14:30:00Z,30.4367,-88.0117,13.3,1111122 
DISL,ioos:station:DISL:MBLA:1,2015-02-01T15:00:00Z,30.4367,-88.0117,14.45,1111122 
DISL,ioos:station:DISL:MBLA:1,2015-02-01T15:30:00Z,30.4367,-88.0117,14.75,1111122 
DISL,ioos:station:DISL:MBLA:1,2015-02-01T16:00:00Z,30.4367,-88.0117,14.65,1111122 
DISL,ioos:station:DISL:MBLA:1,2015-02-01T16:30:00Z,30.4367,-88.0117,14.41,1111122 
DISL,ioos:station:DISL:MBLA:1,2015-02-01T17:00:00Z,30.4367,-88.0117,14.44,1111122 
DISL,ioos:station:DISL:MBLA:1,2015-02-01T17:30:00Z,30.4367,-88.0117,14.61,1111122 
DISL,ioos:station:DISL:MBLA:1,2015-02-01T18:00:00Z,30.4367,-88.0117,14.54,1111122 
DISL,ioos:station:DISL:MBLA:1,2015-02-01T18:30:00Z,30.4367,-88.0117,14.2,1111122 
DISL,ioos:station:DISL:MBLA:1,2015-02-01T19:00:00Z,30.4367,-88.0117,13.72,1111122 
DISL,ioos:station:DISL:MBLA:1,2015-02-01T19:30:00Z,30.4367,-88.0117,13.72,1111122 
DISL,ioos:station:DISL:MBLA:1,2015-02-01T20:00:00Z,30.4367,-88.0117,13.11,1111122 
DISL,ioos:station:DISL:MBLA:1,2015-02-01T20:30:00Z,30.4367,-88.0117,12.16,1111122 
DISL,ioos:station:DISL:MBLA:1,2015-02-01T21:00:00Z,30.4367,-88.0117,12.37,1111122 
DISL,ioos:station:DISL:MBLA:1,2015-02-01T21:30:00Z,30.4367,-88.0117,12.91,1111122 
DISL,ioos:station:DISL:MBLA:1,2015-02-01T22:00:00Z,30.4367,-88.0117,13.65,1111122 
DISL,ioos:station:DISL:MBLA:1,2015-02-01T22:30:00Z,30.4367,-88.0117,12.87,1111122 
DISL,ioos:station:DISL:MBLA:1,2015-02-01T23:00:00Z,30.4367,-88.0117,12.43,1111122 
DISL,ioos:station:DISL:MBLA:1,2015-02-01T23:30:00Z,30.4367,-88.0117,12.23,1111122 
DISL,ioos:station:DISL:MBLA:1,2015-02-02T00:00:00Z,30.4367,-88.0117,12.23,1111122 
DISL,ioos:station:DISL:MBLA:1,2015-02-02T00:30:00Z,30.4367,-88.0117,12.23,1111122 
DISL,ioos:station:DISL:MBLA:1,2015-02-02T01:00:00Z,30.4367,-88.0117,11.96,1111122 
DISL,ioos:station:DISL:MBLA:1,2015-02-02T01:30:00Z,30.4367,-88.0117,12.09,1111122 
DISL,ioos:station:DISL:MBLA:1,2015-02-02T02:00:00Z,30.4367,-88.0117,11.79,1111122 
DISL,ioos:station:DISL:MBLA:1,2015-02-02T02:30:00Z,30.4367,-88.0117,11.99,1111122 
DISL,ioos:station:DISL:MBLA:1,2015-02-02T03:00:00Z,30.4367,-88.0117,12.16,1111122 
DISL,ioos:station:DISL:MBLA:1,2015-02-02T03:30:00Z,30.4367,-88.0117,12.13,1111122 
DISL,ioos:station:DISL:MBLA:1,2015-02-02T04:00:00Z,30.4367,-88.0117,12.2,1111122 
DISL,ioos:station:DISL:MBLA:1,2015-02-02T04:30:00Z,30.4367,-88.0117,13.21,1111122 
DISL,ioos:station:DISL:MBLA:1,2015-02-02T05:00:00Z,30.4367,-88.0117,13.86,1111122 
DISL,ioos:station:DISL:MBLA:1,2015-02-02T05:30:00Z,30.4367,-88.0117,14.3,1111122 
DISL,ioos:station:DISL:MBLA:1,2015-02-02T06:00:00Z,30.4367,-88.0117,14.88,1111122 
DISL,ioos:station:DISL:MBLA:1,2015-02-02T06:30:00Z,30.4367,-88.0117,15.01,1111122 
DISL,ioos:station:DISL:MBLA:1,2015-02-02T07:00:00Z,30.4367,-88.0117,14.43,1111122 
DISL,ioos:station:DISL:MBLA:1,2015-02-02T07:30:00Z,30.4367,-88.0117,14.06,1111122 
DISL,ioos:station:DISL:MBLA:1,2015-02-02T08:00:00Z,30.4367,-88.0117,13.56,1111122 
DISL,ioos:station:DISL:MBLA:1,2015-02-02T08:30:00Z,30.4367,-88.0117,13.46,1111122 
DISL,ioos:station:DISL:MBLA:1,2015-02-02T09:00:00Z,30.4367,-88.0117,13.15,1111122 
DISL,ioos:station:DISL:MBLA:1,2015-02-02T09:30:00Z,30.4367,-88.0117,12.75,1111122 
DISL,ioos:station:DISL:MBLA:1,2015-02-02T10:00:00Z,30.4367,-88.0117,12.25,1111122 
DISL,ioos:station:DISL:MBLA:1,2015-02-02T10:30:00Z,30.4367,-88.0117,11.71,1111122 
DISL,ioos:station:DISL:MBLA:1,2015-02-02T11:00:00Z,30.4367,-88.0117,11.3,1111122 
DISL,ioos:station:DISL:MBLA:1,2015-02-02T11:30:00Z,30.4367,-88.0117,10.22,1111122 
DISL,ioos:station:DISL:MBLA:1,2015-02-02T12:00:00Z,30.4367,-88.0117,9.24,1111122 
DISL,ioos:station:DISL:MBLA:1,2015-02-02T12:30:00Z,30.4367,-88.0117,7.784,1111122 
DISL,ioos:station:DISL:MBLA:1,2015-02-02T13:00:00Z,30.4367,-88.0117,7.175,1111122 
DISL,ioos:station:DISL:MBLA:1,2015-02-02T13:30:00Z,30.4367,-88.0117,7.11,1111122 
DISL,ioos:station:DISL:MBLA:1,2015-02-02T14:00:00Z,30.4367,-88.0117,7.146,1111122 
DISL,ioos:station:DISL:MBLA:1,2015-02-02T14:30:00Z,30.4367,-88.0117,7.379,1111122 
DISL,ioos:station:DISL:MBLA:1,2015-02-02T15:00:00Z,30.4367,-88.0117,7.379,1111122 
DISL,ioos:station:DISL:MBLA:1,2015-02-02T15:30:00Z,30.4367,-88.0117,7.108,1111122 
DISL,ioos:station:DISL:MBLA:1,2015-02-02T16:00:00Z,30.4367,-88.0117,7.04,1111122 
DISL,ioos:station:DISL:MBLA:1,2015-02-02T16:30:00Z,30.4367,-88.0117,7.039,1111122 
DISL,ioos:station:DISL:MBLA:1,2015-02-02T17:00:00Z,30.4367,-88.0117,7.209,1111122 
DISL,ioos:station:DISL:MBLA:1,2015-02-02T17:30:00Z,30.4367,-88.0117,7.547,1111122 
DISL,ioos:station:DISL:MBLA:1,2015-02-02T18:00:00Z,30.4367,-88.0117,7.744,1111122 
DISL,ioos:station:DISL:MBLA:1,2015-02-02T18:30:00Z,30.4367,-88.0117,7.845,1111122 
DISL,ioos:station:DISL:MBLA:1,2015-02-02T19:00:00Z,30.4367,-88.0117,7.879,1111122 
DISL,ioos:station:DISL:MBLA:1,2015-02-02T19:30:00Z,30.4367,-88.0117,8.15,1111122 
DISL,ioos:station:DISL:MBLA:1,2015-02-02T20:00:00Z,30.4367,-88.0117,8.63,1111122 
DISL,ioos:station:DISL:MBLA:1,2015-02-02T20:30:00Z,30.4367,-88.0117,9.09,1111122 
DISL,ioos:station:DISL:MBLA:1,2015-02-02T21:00:00Z,30.4367,-88.0117,9.64,1111122 
DISL,ioos:station:DISL:MBLA:1,2015-02-02T21:30:00Z,30.4367,-88.0117,10.21,1111122 
DISL,ioos:station:DISL:MBLA:1,2015-02-02T22:00:00Z,30.4367,-88.0117,10.48,1111122 
DISL,ioos:station:DISL:MBLA:1,2015-02-02T22:30:00Z,30.4367,-88.0117,10.48,1111122 
DISL,ioos:station:DISL:MBLA:1,2015-02-02T23:00:00Z,30.4367,-88.0117,9.94,1111122 
DISL,ioos:station:DISL:MBLA:1,2015-02-02T23:30:00Z,30.4367,-88.0117,9.47,1111122 
DISL,ioos:station:DISL:MBLA:1,2015-02-03T00:00:00Z,30.4367,-88.0117,8.96,1111122 
DISL,ioos:station:DISL:MBLA:1,2015-02-03T00:30:00Z,30.4367,-88.0117,8.63,1111122 
DISL,ioos:station:DISL:MBLA:1,2015-02-03T01:00:00Z,30.4367,-88.0117,7.956,1111122 
DISL,ioos:station:DISL:MBLA:1,2015-02-03T01:30:00Z,30.4367,-88.0117,7.517,1111122 
DISL,ioos:station:DISL:MBLA:1,2015-02-03T02:00:00Z,30.4367,-88.0117,6.877,1111122 
DISL,ioos:station:DISL:MBLA:1,2015-02-03T02:30:00Z,30.4367,-88.0117,6.266,1111122 
DISL,ioos:station:DISL:MBLA:1,2015-02-03T03:00:00Z,30.4367,-88.0117,6.103,1111122 
DISL,ioos:station:DISL:MBLA:1,2015-02-03T03:30:00Z,30.4367,-88.0117,5.669,1111122 
DISL,ioos:station:DISL:MBLA:1,2015-02-03T04:00:00Z,30.4367,-88.0117,5.467,1111122 
DISL,ioos:station:DISL:MBLA:1,2015-02-03T04:30:00Z,30.4367,-88.0117,5.127,1111122 
DISL,ioos:station:DISL:MBLA:1,2015-02-03T05:00:00Z,30.4367,-88.0117,5.161,1111122 
DISL,ioos:station:DISL:MBLA:1,2015-02-03T05:30:00Z,30.4367,-88.0117,4.924,1111122 
DISL,ioos:station:DISL:MBLA:1,2015-02-03T06:00:00Z,30.4367,-88.0117,4.584,1111122 
DISL,ioos:station:DISL:MBLA:1,2015-02-03T06:30:00Z,30.4367,-88.0117,4.244,1111122 
DISL,ioos:station:DISL:MBLA:1,2015-02-03T07:00:00Z,30.4367,-88.0117,4.211,1111122 
DISL,ioos:station:DISL:MBLA:1,2015-02-03T07:30:00Z,30.4367,-88.0117,4.112,1111122 
DISL,ioos:station:DISL:MBLA:1,2015-02-03T08:00:00Z,30.4367,-88.0117,3.98,1111122 
DISL,ioos:station:DISL:MBLA:1,2015-02-03T08:30:00Z,30.4367,-88.0117,3.743,1111122 
DISL,ioos:station:DISL:MBLA:1,2015-02-03T09:00:00Z,30.4367,-88.0117,3.539,1111122 
DISL,ioos:station:DISL:MBLA:1,2015-02-03T09:30:00Z,30.4367,-88.0117,3.301,1111122 
DISL,ioos:station:DISL:MBLA:1,2015-02-03T10:00:00Z,30.4367,-88.0117,3.097,1111122 
DISL,ioos:station:DISL:MBLA:1,2015-02-03T10:30:00Z,30.4367,-88.0117,3.0,1111122 
DISL,ioos:station:DISL:MBLA:1,2015-02-03T11:00:00Z,30.4367,-88.0117,2.867,1111122 
DISL,ioos:station:DISL:MBLA:1,2015-02-03T11:30:00Z,30.4367,-88.0117,2.765,1111122 
DISL,ioos:station:DISL:MBLA:1,2015-02-03T12:00:00Z,30.4367,-88.0117,2.969,1111122 
DISL,ioos:station:DISL:MBLA:1,2015-02-03T12:30:00Z,30.4367,-88.0117,2.799,1111122 
DISL,ioos:station:DISL:MBLA:1,2015-02-03T13:00:00Z,30.4367,-88.0117,2.731,1111122 
DISL,ioos:station:DISL:MBLA:1,2015-02-03T13:30:00Z,30.4367,-88.0117,2.357,1111122 
DISL,ioos:station:DISL:MBLA:1,2015-02-03T14:00:00Z,30.4367,-88.0117,2.391,1111122 
DISL,ioos:station:DISL:MBLA:1,2015-02-03T14:30:00Z,30.4367,-88.0117,2.629,1111122 
DISL,ioos:station:DISL:MBLA:1,2015-02-03T15:00:00Z,30.4367,-88.0117,2.867,1111122 
DISL,ioos:station:DISL:MBLA:1,2015-02-03T15:30:00Z,30.4367,-88.0117,3.476,1111122 
DISL,ioos:station:DISL:MBLA:1,2015-02-03T16:00:00Z,30.4367,-88.0117,3.913,1111122 
DISL,ioos:station:DISL:MBLA:1,2015-02-03T16:30:00Z,30.4367,-88.0117,4.418,1111122 
DISL,ioos:station:DISL:MBLA:1,2015-02-03T17:00:00Z,30.4367,-88.0117,4.482,1111122 
DISL,ioos:station:DISL:MBLA:1,2015-02-03T17:30:00Z,30.4367,-88.0117,5.603,1111122 
DISL,ioos:station:DISL:MBLA:1,2015-02-03T18:00:00Z,30.4367,-88.0117,5.433,1111122 
DISL,ioos:station:DISL:MBLA:1,2015-02-03T18:30:00Z,30.4367,-88.0117,5.466,1111122 
DISL,ioos:station:DISL:MBLA:1,2015-02-03T19:00:00Z,30.4367,-88.0117,6.248,1111122 
DISL,ioos:station:DISL:MBLA:1,2015-02-03T19:30:00Z,30.4367,-88.0117,7.294,1111122 
DISL,ioos:station:DISL:MBLA:1,2015-02-03T20:00:00Z,30.4367,-88.0117,7.692,1111122 
DISL,ioos:station:DISL:MBLA:1,2015-02-03T20:30:00Z,30.4367,-88.0117,8.16,1111122 
DISL,ioos:station:DISL:MBLA:1,2015-02-03T21:00:00Z,30.4367,-88.0117,8.29,1111122 
DISL,ioos:station:DISL:MBLA:1,2015-02-03T21:30:00Z,30.4367,-88.0117,8.5,1111122 
DISL,ioos:station:DISL:MBLA:1,2015-02-03T22:00:00Z,30.4367,-88.0117,8.87,1111122 
DISL,ioos:station:DISL:MBLA:1,2015-02-03T22:30:00Z,30.4367,-88.0117,9.11,1111122 
DISL,ioos:station:DISL:MBLA:1,2015-02-03T23:00:00Z,30.4367,-88.0117,9.28,1111122 
DISL,ioos:station:DISL:MBLA:1,2015-02-03T23:30:00Z,30.4367,-88.0117,9.38,1111122 
DISL,ioos:station:DISL:MBLA:1,2015-02-04T00:00:00Z,30.4367,-88.0117,9.28,1111122 
DISL,ioos:station:DISL:MBLA:1,2015-02-04T00:30:00Z,30.4367,-88.0117,9.28,1111122 
DISL,ioos:station:DISL:MBLA:1,2015-02-04T01:00:00Z,30.4367,-88.0117,9.48,1111122 
DISL,ioos:station:DISL:MBLA:1,2015-02-04T01:30:00Z,30.4367,-88.0117,9.58,1111122 
DISL,ioos:station:DISL:MBLA:1,2015-02-04T02:00:00Z,30.4367,-88.0117,9.21,1111122 
DISL,ioos:station:DISL:MBLA:1,2015-02-04T02:30:00Z,30.4367,-88.0117,9.11,1111122 
DISL,ioos:station:DISL:MBLA:1,2015-02-04T03:00:00Z,30.4367,-88.0117,9.14,1111122 
DISL,ioos:station:DISL:MBLA:1,2015-02-04T03:30:00Z,30.4367,-88.0117,9.18,1111122 
DISL,ioos:station:DISL:MBLA:1,2015-02-04T04:00:00Z,30.4367,-88.0117,9.14,1111122 
DISL,ioos:station:DISL:MBLA:1,2015-02-04T04:30:00Z,30.4367,-88.0117,9.04,1111122 
DISL,ioos:station:DISL:MBLA:1,2015-02-04T05:00:00Z,30.4367,-88.0117,9.11,1111122 
DISL,ioos:station:DISL:MBLA:1,2015-02-04T05:30:00Z,30.4367,-88.0117,9.31,1111122 
DISL,ioos:station:DISL:MBLA:1,2015-02-04T06:00:00Z,30.4367,-88.0117,9.11,1111122 
DISL,ioos:station:DISL:MBLA:1,2015-02-04T06:30:00Z,30.4367,-88.0117,8.77,1111122 
DISL,ioos:station:DISL:MBLA:1,2015-02-04T07:00:00Z,30.4367,-88.0117,8.91,1111122 
DISL,ioos:station:DISL:MBLA:1,2015-02-04T07:30:00Z,30.4367,-88.0117,9.01,1111122 
DISL,ioos:station:DISL:MBLA:1,2015-02-04T08:00:00Z,30.4367,-88.0117,9.04,1111122 
DISL,ioos:station:DISL:MBLA:1,2015-02-04T08:30:00Z,30.4367,-88.0117,9.04,1111122 
DISL,ioos:station:DISL:MBLA:1,2015-02-04T09:00:00Z,30.4367,-88.0117,9.14,1111122 
DISL,ioos:station:DISL:MBLA:1,2015-02-04T09:30:00Z,30.4367,-88.0117,9.31,1111122 
DISL,ioos:station:DISL:MBLA:1,2015-02-04T10:00:00Z,30.4367,-88.0117,9.38,1111122 
DISL,ioos:station:DISL:MBLA:1,2015-02-04T10:30:00Z,30.4367,-88.0117,8.87,1111122 
DISL,ioos:station:DISL:MBLA:1,2015-02-04T11:00:00Z,30.4367,-88.0117,8.53,1111122 
DISL,ioos:station:DISL:MBLA:1,2015-02-04T11:30:00Z,30.4367,-88.0117,8.46,1111122 
DISL,ioos:station:DISL:MBLA:1,2015-02-04T12:00:00Z,30.4367,-88.0117,7.991,1111122 
DISL,ioos:station:DISL:MBLA:1,2015-02-04T12:30:00Z,30.4367,-88.0117,8.03,1111122 
DISL,ioos:station:DISL:MBLA:1,2015-02-04T13:00:00Z,30.4367,-88.0117,7.895,1111122 
DISL,ioos:station:DISL:MBLA:1,2015-02-04T13:30:00Z,30.4367,-88.0117,7.726,1111122 
DISL,ioos:station:DISL:MBLA:1,2015-02-04T14:00:00Z,30.4367,-88.0117,7.522,1111122 
DISL,ioos:station:DISL:MBLA:1,2015-02-04T14:30:00Z,30.4367,-88.0117,7.522,1111122 
DISL,ioos:station:DISL:MBLA:1,2015-02-04T15:00:00Z,30.4367,-88.0117,7.76,1111122 
DISL,ioos:station:DISL:MBLA:1,2015-02-04T15:30:00Z,30.4367,-88.0117,8.23,1111122 
DISL,ioos:station:DISL:MBLA:1,2015-02-04T16:00:00Z,30.4367,-88.0117,8.81,1111122 
DISL,ioos:station:DISL:MBLA:1,2015-02-04T16:30:00Z,30.4367,-88.0117,9.11,1111122 
DISL,ioos:station:DISL:MBLA:1,2015-02-04T17:00:00Z,30.4367,-88.0117,9.49,1111122 
DISL,ioos:station:DISL:MBLA:1,2015-02-04T17:30:00Z,30.4367,-88.0117,9.58,1111122 
DISL,ioos:station:DISL:MBLA:1,2015-02-04T18:00:00Z,30.4367,-88.0117,9.38,1111122 
DISL,ioos:station:DISL:MBLA:1,2015-02-04T18:30:00Z,30.4367,-88.0117,8.97,1111122 
DISL,ioos:station:DISL:MBLA:1,2015-02-04T19:00:00Z,30.4367,-88.0117,8.47,1111122 
DISL,ioos:station:DISL:MBLA:1,2015-02-04T19:30:00Z,30.4367,-88.0117,8.4,1111122 
DISL,ioos:station:DISL:MBLA:1,2015-02-04T20:00:00Z,30.4367,-88.0117,8.47,1111122 
DISL,ioos:station:DISL:MBLA:1,2015-02-04T20:30:00Z,30.4367,-88.0117,8.5,1111122 
DISL,ioos:station:DISL:MBLA:1,2015-02-04T21:00:00Z,30.4367,-88.0117,8.47,1111122 
DISL,ioos:station:DISL:MBLA:1,2015-02-04T21:30:00Z,30.4367,-88.0117,8.4,1111122 
DISL,ioos:station:DISL:MBLA:1,2015-02-04T22:00:00Z,30.4367,-88.0117,8.43,1111122 
DISL,ioos:station:DISL:MBLA:1,2015-02-04T22:30:00Z,30.4367,-88.0117,8.5,1111122 
DISL,ioos:station:DISL:MBLA:1,2015-02-04T23:00:00Z,30.4367,-88.0117,8.36,1111122 
DISL,ioos:station:DISL:MBLA:1,2015-02-04T23:30:00Z,30.4367,-88.0117,8.33,1111122 
DISL,ioos:station:DISL:MBLA:1,2015-02-05T00:00:00Z,30.4367,-88.0117,8.23,1111122 
DISL,ioos:station:DISL:MBLA:1,2015-02-05T00:30:00Z,30.4367,-88.0117,8.16,1111122 
DISL,ioos:station:DISL:MBLA:1,2015-02-05T01:00:00Z,30.4367,-88.0117,8.16,1111122 
DISL,ioos:station:DISL:MBLA:1,2015-02-05T01:30:00Z,30.4367,-88.0117,8.4,1111122 
DISL,ioos:station:DISL:MBLA:1,2015-02-05T02:00:00Z,30.4367,-88.0117,8.33,1111122 
DISL,ioos:station:DISL:MBLA:1,2015-02-05T02:30:00Z,30.4367,-88.0117,8.5,1111122 
DISL,ioos:station:DISL:MBLA:1,2015-02-05T03:00:00Z,30.4367,-88.0117,8.63,1111122 
DISL,ioos:station:DISL:MBLA:1,2015-02-05T03:30:00Z,30.4367,-88.0117,8.4,1111122 
DISL,ioos:station:DISL:MBLA:1,2015-02-05T04:00:00Z,30.4367,-88.0117,8.33,1111122 
DISL,ioos:station:DISL:MBLA:1,2015-02-05T04:30:00Z,30.4367,-88.0117,8.4,1111122 
DISL,ioos:station:DISL:MBLA:1,2015-02-05T05:00:00Z,30.4367,-88.0117,8.19,1111122 
DISL,ioos:station:DISL:MBLA:1,2015-02-05T05:30:00Z,30.4367,-88.0117,8.02,1111122 
DISL,ioos:station:DISL:MBLA:1,2015-02-05T06:00:00Z,30.4367,-88.0117,8.03,1111122 
DISL,ioos:station:DISL:MBLA:1,2015-02-05T06:30:00Z,30.4367,-88.0117,7.758,1111122 
DISL,ioos:station:DISL:MBLA:1,2015-02-05T07:00:00Z,30.4367,-88.0117,7.386,1111122 
DISL,ioos:station:DISL:MBLA:1,2015-02-05T07:30:00Z,30.4367,-88.0117,7.658,1111122 
DISL,ioos:station:DISL:MBLA:1,2015-02-05T08:00:00Z,30.4367,-88.0117,7.794,1111122 
DISL,ioos:station:DISL:MBLA:1,2015-02-05T08:30:00Z,30.4367,-88.0117,7.624,1111122 
DISL,ioos:station:DISL:MBLA:1,2015-02-05T09:00:00Z,30.4367,-88.0117,8.03,1111122 
DISL,ioos:station:DISL:MBLA:1,2015-02-05T09:30:00Z,30.4367,-88.0117,7.76,1111122 
DISL,ioos:station:DISL:MBLA:1,2015-02-05T10:00:00Z,30.4367,-88.0117,7.454,1111122 
DISL,ioos:station:DISL:MBLA:1,2015-02-05T10:30:00Z,30.4367,-88.0117,7.42,1111122 
DISL,ioos:station:DISL:MBLA:1,2015-02-05T11:00:00Z,30.4367,-88.0117,7.625,1111122 
DISL,ioos:station:DISL:MBLA:1,2015-02-05T11:30:00Z,30.4367,-88.0117,7.727,1111122 
DISL,ioos:station:DISL:MBLA:1,2015-02-05T12:00:00Z,30.4367,-88.0117,7.556,1111122 
DISL,ioos:station:DISL:MBLA:1,2015-02-05T12:30:00Z,30.4367,-88.0117,7.794,1111122 
DISL,ioos:station:DISL:MBLA:1,2015-02-05T13:00:00Z,30.4367,-88.0117,8.13,1111122 
DISL,ioos:station:DISL:MBLA:1,2015-02-05T13:30:00Z,30.4367,-88.0117,8.54,1111122 
DISL,ioos:station:DISL:MBLA:1,2015-02-05T14:00:00Z,30.4367,-88.0117,8.88,1111122 
DISL,ioos:station:DISL:MBLA:1,2015-02-05T14:30:00Z,30.4367,-88.0117,8.19,1111122 
DISL,ioos:station:DISL:MBLA:1,2015-02-05T15:00:00Z,30.4367,-88.0117,8.4,1111122 
DISL,ioos:station:DISL:MBLA:1,2015-02-05T15:30:00Z,30.4367,-88.0117,8.63,1111122 
DISL,ioos:station:DISL:MBLA:1,2015-02-05T16:00:00Z,30.4367,-88.0117,9.04,1111122 
DISL,ioos:station:DISL:MBLA:1,2015-02-05T16:30:00Z,30.4367,-88.0117,9.79,1111122 
DISL,ioos:station:DISL:MBLA:1,2015-02-05T17:00:00Z,30.4367,-88.0117,10.02,1111122 
DISL,ioos:station:DISL:MBLA:1,2015-02-05T17:30:00Z,30.4367,-88.0117,10.42,1111122 
DISL,ioos:station:DISL:MBLA:1,2015-02-05T18:00:00Z,30.4367,-88.0117,10.79,1111122 
DISL,ioos:station:DISL:MBLA:1,2015-02-05T18:30:00Z,30.4367,-88.0117,10.86,1111122 
DISL,ioos:station:DISL:MBLA:1,2015-02-05T19:00:00Z,30.4367,-88.0117,11.56,1111122 
DISL,ioos:station:DISL:MBLA:1,2015-02-05T19:30:00Z,30.4367,-88.0117,11.9,1111122 
DISL,ioos:station:DISL:MBLA:1,2015-02-05T20:00:00Z,30.4367,-88.0117,12.43,1111122 
DISL,ioos:station:DISL:MBLA:1,2015-02-05T20:30:00Z,30.4367,-88.0117,12.81,1111122 
DISL,ioos:station:DISL:MBLA:1,2015-02-05T21:00:00Z,30.4367,-88.0117,13.35,1111122 
DISL,ioos:station:DISL:MBLA:1,2015-02-05T21:30:00Z,30.4367,-88.0117,13.55,1111122 
DISL,ioos:station:DISL:MBLA:1,2015-02-05T22:00:00Z,30.4367,-88.0117,13.58,1111122 
DISL,ioos:station:DISL:MBLA:1,2015-02-05T22:30:00Z,30.4367,-88.0117,13.65,1111122 
DISL,ioos:station:DISL:MBLA:1,2015-02-05T23:00:00Z,30.4367,-88.0117,12.91,1111122 
DISL,ioos:station:DISL:MBLA:1,2015-02-05T23:30:00Z,30.4367,-88.0117,12.64,1111122 
DISL,ioos:station:DISL:MBLA:1,2015-02-06T00:00:00Z,30.4367,-88.0117,12.44,1111122 
DISL,ioos:station:DISL:MBLA:1,2015-02-06T00:30:00Z,30.4367,-88.0117,12.28,1111122 
DISL,ioos:station:DISL:MBLA:1,2015-02-06T01:00:00Z,30.4367,-88.0117,11.77,1111122 
DISL,ioos:station:DISL:MBLA:1,2015-02-06T01:30:00Z,30.4367,-88.0117,11.37,1111122 
DISL,ioos:station:DISL:MBLA:1,2015-02-06T02:00:00Z,30.4367,-88.0117,11.03,1111122 
DISL,ioos:station:DISL:MBLA:1,2015-02-06T02:30:00Z,30.4367,-88.0117,10.63,1111122 
DISL,ioos:station:DISL:MBLA:1,2015-02-06T03:00:00Z,30.4367,-88.0117,9.98,1111122 
DISL,ioos:station:DISL:MBLA:1,2015-02-06T03:30:00Z,30.4367,-88.0117,9.48,1111122 
DISL,ioos:station:DISL:MBLA:1,2015-02-06T04:00:00Z,30.4367,-88.0117,8.7,1111122 
DISL,ioos:station:DISL:MBLA:1,2015-02-06T04:30:00Z,30.4367,-88.0117,8.4,1111122 
DISL,ioos:station:DISL:MBLA:1,2015-02-06T05:00:00Z,30.4367,-88.0117,7.991,1111122 
DISL,ioos:station:DISL:MBLA:1,2015-02-06T05:30:00Z,30.4367,-88.0117,7.657,1111122 
DISL,ioos:station:DISL:MBLA:1,2015-02-06T06:00:00Z,30.4367,-88.0117,7.284,1111122 
DISL,ioos:station:DISL:MBLA:1,2015-02-06T06:30:00Z,30.4367,-88.0117,7.047,1111122 
DISL,ioos:station:DISL:MBLA:1,2015-02-06T07:00:00Z,30.4367,-88.0117,6.816,1111122 
DISL,ioos:station:DISL:MBLA:1,2015-02-06T07:30:00Z,30.4367,-88.0117,6.477,1111122 
DISL,ioos:station:DISL:MBLA:1,2015-02-06T08:00:00Z,30.4367,-88.0117,6.276,1111122 
DISL,ioos:station:DISL:MBLA:1,2015-02-06T08:30:00Z,30.4367,-88.0117,5.84,1111122 
DISL,ioos:station:DISL:MBLA:1,2015-02-06T09:00:00Z,30.4367,-88.0117,5.297,1111122 
DISL,ioos:station:DISL:MBLA:1,2015-02-06T09:30:00Z,30.4367,-88.0117,4.992,1111122 
DISL,ioos:station:DISL:MBLA:1,2015-02-06T10:00:00Z,30.4367,-88.0117,4.924,1111122 
DISL,ioos:station:DISL:MBLA:1,2015-02-06T10:30:00Z,30.4367,-88.0117,4.55,1111122 
DISL,ioos:station:DISL:MBLA:1,2015-02-06T11:00:00Z,30.4367,-88.0117,4.346,1111122 
DISL,ioos:station:DISL:MBLA:1,2015-02-06T11:30:00Z,30.4367,-88.0117,4.144,1111122 
DISL,ioos:station:DISL:MBLA:1,2015-02-06T12:00:00Z,30.4367,-88.0117,3.912,1111122 
DISL,ioos:station:DISL:MBLA:1,2015-02-06T12:30:00Z,30.4367,-88.0117,3.641,1111122 
DISL,ioos:station:DISL:MBLA:1,2015-02-06T13:00:00Z,30.4367,-88.0117,3.878,1111122 
DISL,ioos:station:DISL:MBLA:1,2015-02-06T13:30:00Z,30.4367,-88.0117,4.523,1111122 
DISL,ioos:station:DISL:MBLA:1,2015-02-06T14:00:00Z,30.4367,-88.0117,5.026,1111122 
DISL,ioos:station:DISL:MBLA:1,2015-02-06T14:30:00Z,30.4367,-88.0117,4.856,1111122 
DISL,ioos:station:DISL:MBLA:1,2015-02-06T15:00:00Z,30.4367,-88.0117,5.493,1111122 
DISL,ioos:station:DISL:MBLA:1,2015-02-06T15:30:00Z,30.4367,-88.0117,6.199,1111122 
DISL,ioos:station:DISL:MBLA:1,2015-02-06T16:00:00Z,30.4367,-88.0117,7.957,1111122 
DISL,ioos:station:DISL:MBLA:1,2015-02-06T16:30:00Z,30.4367,-88.0117,9.14,1111122 
DISL,ioos:station:DISL:MBLA:1,2015-02-06T17:00:00Z,30.4367,-88.0117,9.81,1111122 
DISL,ioos:station:DISL:MBLA:1,2015-02-06T17:30:00Z,30.4367,-88.0117,9.49,1111122 
DISL,ioos:station:DISL:MBLA:1,2015-02-06T18:00:00Z,30.4367,-88.0117,9.96,1111122 
DISL,ioos:station:DISL:MBLA:1,2015-02-06T18:30:00Z,30.4367,-88.0117,10.23,1111122 
DISL,ioos:station:DISL:MBLA:1,2015-02-06T19:00:00Z,30.4367,-88.0117,8.5,1111122 
DISL,ioos:station:DISL:MBLA:1,2015-02-06T19:30:00Z,30.4367,-88.0117,8.26,1111122 
DISL,ioos:station:DISL:MBLA:1,2015-02-06T20:00:00Z,30.4367,-88.0117,8.8,1111122 
DISL,ioos:station:DISL:MBLA:1,2015-02-06T20:30:00Z,30.4367,-88.0117,9.31,1111122 
DISL,ioos:station:DISL:MBLA:1,2015-02-06T21:00:00Z,30.4367,-88.0117,10.16,1111122 
DISL,ioos:station:DISL:MBLA:1,2015-02-06T21:30:00Z,30.4367,-88.0117,11.28,1111122 
DISL,ioos:station:DISL:MBLA:1,2015-02-06T22:00:00Z,30.4367,-88.0117,11.07,1111122 
DISL,ioos:station:DISL:MBLA:1,2015-02-06T22:30:00Z,30.4367,-88.0117,11.44,1111122 
DISL,ioos:station:DISL:MBLA:1,2015-02-06T23:00:00Z,30.4367,-88.0117,11.17,1111122 
DISL,ioos:station:DISL:MBLA:1,2015-02-06T23:30:00Z,30.4367,-88.0117,10.59,1111122 
DISL,ioos:station:DISL:MBLA:1,2015-02-07T00:00:00Z,30.4367,-88.0117,10.5,1111122 